Phoenix, AZ

7:40 AM MST on November 20, 2017 (GMT -0700)
Phoenix Sky Harbor International

Weather History for KPHX - April, 2013

Change the Weather History Date:

Wednesday, April 17, 2013

  Actual Average Record
Temperature  
Mean Temperature 67 °F 73 °F  
Max Temperature 75 °F 86 °F 100 °F (1987)
Min Temperature 59 °F 61 °F 38 °F (1924)
Degree Days  
Heating Degree Days 0 1  
Month to date heating degree days 0 17  
Since 1 July heating degree days 881 931  
Cooling Degree Days 2 9  
Month to date cooling degree days 142 114  
Year to date cooling degree days 330 218  
Growing Degree Days 16 (Base 50)    
Moisture  
Dew Point 16 °F    
Average Humidity 17    
Maximum Humidity 29    
Minimum Humidity 5    
Precipitation  
Precipitation 0.00 in 0.01 in 0.45 in (1903)
Month to date precipitation 0.06 0.22  
Year to date precipitation 2.61 3.04  
Snow  
Snow 0.00 in - - ()
Month to date snowfall 0.0  
Year to date snowfall 0.0  
Since 1 July snowfall 0.0  
Snow Depth 0.00 in    
Sea Level Pressure  
Sea Level Pressure 29.84 in    
Wind  
Wind Speed 14 mph (West)    
Max Wind Speed 28 mph    
Max Gust Speed 33 mph    
Visibility 10 miles    
Events      
T = Trace of Precipitation, MM = Missing Value Source: NWS Daily Summary

Daily Weather History Graph

Daily Weather History Graph

Search for Another Location

Airport or City:

Trip Planner

Search our weather history database for the weather conditions in past years. The results will help you decide how hot, cold, wet, or windy it might be!

Date:

Astronomy

Apr. 17, 2013 Rise Set
Actual Time 5:54 AM MST 7:00 PM MST
Civil Twilight 5:29 AM MST 7:26 PM MST
Nautical Twilight 4:58 AM MST 7:56 PM MST
Astronomical Twilight 4:27 AM MST 8:28 PM MST
Moon 11:17 AM MST (4/17) 12:34 AM MST (4/17)
Length of Visible Light 13h 56m
Length of Day
13h 05m
Waxing Crescent, 43% of the Moon is Illuminated
Apr 17
Waxing Crescent
Apr 18
First Quarter
Apr 25
Full
May 2
Last Quarter
May 9
New

Hourly Weather History & Observations

Time (MST) Temp. Dew Point Humidity Pressure Visibility Wind Dir Wind Speed Gust Speed Precip Events Conditions
12:51 AM 66.0 °F 25.0 °F 21% 29.74 in 10.0 mi West 5.8 mph - N/A   Partly Cloudy
1:51 AM 66.0 °F 26.1 °F 22% 29.74 in 10.0 mi South 5.8 mph - N/A   Partly Cloudy
2:51 AM 64.0 °F 30.9 °F 29% 29.73 in 10.0 mi South 4.6 mph - N/A   Clear
3:51 AM 61.0 °F 28.0 °F 29% 29.73 in 10.0 mi WSW 10.4 mph - N/A   Partly Cloudy
4:51 AM 61.0 °F 26.1 °F 26% 29.74 in 10.0 mi West 8.1 mph - N/A   Partly Cloudy
5:51 AM 60.1 °F 24.1 °F 25% 29.76 in 10.0 mi West 5.8 mph - N/A   Mostly Cloudy
6:51 AM 61.0 °F 26.1 °F 26% 29.79 in 10.0 mi West 10.4 mph - N/A   Mostly Cloudy
7:51 AM 63.0 °F 26.1 °F 25% 29.82 in 10.0 mi West 19.6 mph 24.2 mph N/A   Scattered Clouds
8:51 AM 64.0 °F 27.0 °F 25% 29.84 in 10.0 mi West 17.3 mph - N/A   Partly Cloudy
9:51 AM 68.0 °F 25.0 °F 20% 29.84 in 10.0 mi West 12.7 mph 25.3 mph N/A   Scattered Clouds
10:51 AM 70.0 °F 26.1 °F 19% 29.86 in 10.0 mi WSW 12.7 mph 27.6 mph N/A   Scattered Clouds
11:51 AM 69.1 °F 19.9 °F 15% 29.86 in 10.0 mi WNW 17.3 mph 28.8 mph N/A   Scattered Clouds
12:44 PM 71.6 °F 15.8 °F 12% 29.88 in 10.0 mi WNW 13.8 mph 23.0 mph N/A   Scattered Clouds
12:51 PM 70.0 °F 16.0 °F 13% 29.85 in 10.0 mi West 19.6 mph 24.2 mph N/A   Scattered Clouds
1:51 PM 73.0 °F 10.9 °F 9% 29.83 in 10.0 mi NW 18.4 mph 31.1 mph N/A   Partly Cloudy
2:51 PM 73.9 °F 9.0 °F 8% 29.83 in 10.0 mi West 13.8 mph 27.6 mph N/A   Partly Cloudy
3:17 PM 73.4 °F 6.8 °F 8% 29.86 in 10.0 mi West 11.5 mph - N/A   Partly Cloudy
3:51 PM 73.9 °F 7.0 °F 8% 29.83 in 10.0 mi West 21.9 mph 32.2 mph N/A   Partly Cloudy
4:51 PM 73.0 °F 5.0 °F 7% 29.84 in 10.0 mi WNW 19.6 mph 32.2 mph N/A   Partly Cloudy
5:51 PM 73.0 °F -0.0 °F 6% 29.84 in 10.0 mi WNW 16.1 mph - N/A   Partly Cloudy
6:51 PM 71.1 °F 3.0 °F 7% 29.86 in 10.0 mi West 19.6 mph - N/A   Partly Cloudy
7:51 PM 70.0 °F 3.9 °F 7% 29.88 in 10.0 mi West 17.3 mph - N/A   Partly Cloudy
8:51 PM 69.1 °F 3.9 °F 8% 29.92 in 10.0 mi WNW 16.1 mph - N/A   Clear
9:51 PM 66.9 °F 6.1 °F 9% 29.95 in 10.0 mi WNW 12.7 mph - N/A   Clear
10:51 PM 66.0 °F 7.0 °F 10% 29.96 in 10.0 mi NNW 10.4 mph - N/A   Clear
11:51 PM 64.0 °F 6.1 °F 10% 29.99 in 10.0 mi North 9.2 mph - N/A   Clear